This is the latest recevied weather packets stored in our database for station/object KI7JYE. If no packets are shown the sender has not sent any weather packets the latest 10 day(s).
| Time | Temp. | Humidity | Pressure | Rain* | Wind** | Luminosity | Snow |
|---|---|---|---|---|---|---|---|
| 1777951939 | 16.67° C | 74% | 1010 hPa | 0 mm | - | 0 W/m² | - |
| 1777951637 | 17.22° C | 73% | 1010.1 hPa | 0 mm | - | 0 W/m² | - |
| 1777951333 | 17.22° C | 73% | 1010 hPa | 0 mm | - | 2 W/m² | - |
| 1777951031 | 17.78° C | 72% | 1009.7 hPa | 0 mm | - | 3 W/m² | - |
| 1777950727 | 17.78° C | 71% | 1009.9 hPa | 0 mm | - | 5 W/m² | - |
| 1777950424 | 18.33° C | 70% | 1009.7 hPa | 0 mm | - | 7 W/m² | - |
| 1777950119 | 18.33° C | 69% | 1009.5 hPa | 0 mm | - | 10 W/m² | - |
| 1777949815 | 18.89° C | 69% | 1009.5 hPa | 0 mm | - | 12 W/m² | - |
| 1777949514 | 19.44° C | 68% | 1009.6 hPa | 0 mm | - | 16 W/m² | - |
| 1777949211 | 19.44° C | 67% | 1009.6 hPa | 0 mm | - | 18 W/m² | - |
| 1777948908 | 20° C | 66% | 1009.4 hPa | 0 mm | - | 21 W/m² | - |
| 1777948606 | 20.56° C | 66% | 1009.4 hPa | 0 mm | - | 24 W/m² | - |
| 1777948303 | 21.11° C | 64% | 1009.4 hPa | 0 mm | - | 28 W/m² | - |
| 1777948000 | 21.67° C | 63% | 1009.3 hPa | 0 mm | - | 32 W/m² | - |
| 1777947698 | 22.22° C | 62% | 1009.2 hPa | 0 mm | - | 35 W/m² | - |
| 1777947394 | 22.22° C | 61% | 1009.2 hPa | 0 mm | - | 39 W/m² | - |
| 1777947091 | 22.78° C | 61% | 1009.2 hPa | 0 mm | - | 42 W/m² | - |
| 1777946786 | 22.78° C | 61% | 1009.2 hPa | 0 mm | - | 45 W/m² | - |
| 1777946483 | 22.78° C | 62% | 1009.2 hPa | 0 mm | - | 49 W/m² | - |
| 1777946180 | 22.78° C | 60% | 1009.2 hPa | 0 mm | - | 52 W/m² | - |
| 1777945876 | 22.78° C | 61% | 1009.3 hPa | 0 mm | - | 67 W/m² | - |
| 1777945573 | 22.78° C | 59% | 1009.3 hPa | 0 mm | - | 89 W/m² | - |
| 1777945270 | 22.78° C | 61% | 1009.1 hPa | 0 mm | - | 99 W/m² | - |
| 1777944968 | 23.33° C | 60% | 1009.4 hPa | 0 mm | - | 111 W/m² | - |
| 1777944665 | 23.33° C | 60% | 1009.1 hPa | 0 mm | - | 122 W/m² | - |
* Rain latest hour (hover to see other rain measurements)
** Current wind speed in m/s (hover to see current wind gust speed)